Location: Newark
(51.8900°N, 2.0780°W)
Time: 13:41:36
(UTC+00:00)

Envisat - Pass Details

Date: 28 November 2019
Orbit: 764 x 766 km, 98.1° (Epoch: 15 December)

Event Time Altitude Azimuth Distance (km) Brightness Sun altitude
Rises 18:22:47 0° 179° (S) 3,221 6.3 -20.7°
Reaches altitude 10° 18:25:08 10° 184° (S) 2,299 5.6 -21.0°
Maximum altitude 18:30:04 51° 260° (W) 958 3.8 -21.8°
Drops below altitude 10° 18:35:03 10° 337° (NNW) 2,315 5.7 -22.5°
Sets 18:37:26 0° 343° (NNW) 3,246 6.4 -22.9°
